DIRECTV 9S

Last updated on Fri Dec 19 2025 00:02:49 GMT+0000 (Coordinated Universal Time)

1 29494U 06043A 25352.60526160 -.00000090 00000+0 00000+0 0 9992 2 29494 1.9545 83.1512 0002810 189.8172 291.1806 1.00271821 49575
UTC large
Height (km)
Speed (km/s)
/
Latitude / Longitude
Inclination (degrees)
Orbital Period (minutes)
Azimuth
Elevation
Range (km)
Doppler Factor

Next 0 passes for location: London (51.5072 / 0.1276)

Sorry there are no passes over London.